N470CP PHNL-NSTU

Flight info

Callsign N470CP
Flight time N/A
Altitude 36000
Route OPIHI3 OPIHI DCT DATBE G457 LAKER DCT SETTS
Aircraft E190/M-SDE1E2E3FGHIJ3J4J7P2RWXY/LB1D1G1

Departure

Time 2026-05-08 03:49
Airport Daniel K. Inouye International Airport (PHNL)

Arrival

Time N/A
Airport Pago Pago International Airport (NSTU)
Time Latitude Longitude Altitude Speed Heading
2026-05-08 03:34 21.32104 -157.91386 24 ft 0 kts 53°
2026-05-08 03:44 21.32114 -157.91376 24 ft 5 kts 31°
2026-05-08 03:44 21.32152 -157.91382 24 ft 6 kts 316°
2026-05-08 03:44 21.32139 -157.91438 24 ft 10 kts 232°
2026-05-08 03:44 21.32085 -157.91516 23 ft 15 kts 233°
2026-05-08 03:45 21.32012 -157.91617 23 ft 18 kts 219°
2026-05-08 03:45 21.31896 -157.91705 23 ft 20 kts 225°
2026-05-08 03:45 21.31807 -157.91830 23 ft 21 kts 233°
2026-05-08 03:45 21.31716 -157.91960 23 ft 22 kts 233°
2026-05-08 03:46 21.31622 -157.92093 23 ft 22 kts 232°
2026-05-08 03:46 21.31526 -157.92229 24 ft 23 kts 233°
2026-05-08 03:46 21.31427 -157.92369 24 ft 23 kts 233°
2026-05-08 03:46 21.31326 -157.92513 23 ft 22 kts 233°
2026-05-08 03:47 21.31286 -157.92610 23 ft 10 kts 305°
2026-05-08 03:47 21.31343 -157.92656 24 ft 9 kts 323°
2026-05-08 03:47 21.31400 -157.92693 25 ft 8 kts
2026-05-08 03:47 21.31431 -157.92658 25 ft 0 kts 53°
2026-05-08 03:48 21.31449 -157.92630 25 ft 24 kts 53°
2026-05-08 03:48 21.31746 -157.92210 25 ft 102 kts 53°
2026-05-08 03:48 21.32296 -157.91431 28 ft 157 kts 53°
2026-05-08 03:48 21.33004 -157.90427 425 ft 174 kts 55°
2026-05-08 03:49 21.33328 -157.89188 1054 ft 184 kts 96°
2026-05-08 03:49 21.32668 -157.87999 1752 ft 199 kts 141°
2026-05-08 03:49 21.31328 -157.87628 2434 ft 205 kts 184°
2026-05-08 03:49 21.29969 -157.87878 3098 ft 202 kts 189°
2026-05-08 03:50 21.28581 -157.88164 3774 ft 205 kts 189°
2026-05-08 03:50 21.27174 -157.88443 4451 ft 206 kts 189°
2026-05-08 03:50 21.25768 -157.88713 5123 ft 207 kts 189°
2026-05-08 03:50 21.24353 -157.88979 5798 ft 207 kts 189°
2026-05-08 03:51 21.22932 -157.89258 6416 ft 210 kts 196°
2026-05-08 03:51 21.21668 -157.90205 6501 ft 241 kts 235°
2026-05-08 03:51 21.20596 -157.91586 7184 ft 244 kts 232°
2026-05-08 03:51 21.19378 -157.93022 7392 ft 271 kts 225°
2026-05-08 03:52 21.17924 -157.94405 7786 ft 289 kts 218°
2026-05-08 03:52 21.16289 -157.95708 8463 ft 294 kts 215°
2026-05-08 03:52 21.14627 -157.96919 9271 ft 293 kts 214°
2026-05-08 03:52 21.13035 -157.98032 10028 ft 291 kts 213°
2026-05-08 03:53 21.11327 -157.99202 10698 ft 294 kts 213°
2026-05-08 03:53 21.09573 -158.00352 11208 ft 303 kts 207°
2026-05-08 03:53 21.07601 -158.01318 11701 ft 314 kts 205°
2026-05-08 03:53 21.05598 -158.02264 12167 ft 323 kts 205°
2026-05-08 03:54 21.03499 -158.03253 12694 ft 331 kts 204°
2026-05-08 03:54 21.01363 -158.04257 13298 ft 335 kts 205°
2026-05-08 03:54 20.99244 -158.05252 13934 ft 337 kts 205°
2026-05-08 03:54 20.97085 -158.06265 14549 ft 339 kts 204°
2026-05-08 03:55 20.94906 -158.07289 15144 ft 342 kts 204°
2026-05-08 03:55 20.92730 -158.08310 15703 ft 345 kts 204°
2026-05-08 03:55 20.90532 -158.09341 16244 ft 349 kts 204°
2026-05-08 03:55 20.88281 -158.10396 16780 ft 353 kts 205°
2026-05-08 03:56 20.86039 -158.11447 17295 ft 356 kts 205°
2026-05-08 03:56 20.83748 -158.12521 17811 ft 360 kts 204°
2026-05-08 03:56 20.81435 -158.13605 18356 ft 362 kts 205°
2026-05-08 03:56 20.79134 -158.14682 18913 ft 364 kts 205°
2026-05-08 03:57 20.76824 -158.15764 19470 ft 366 kts 205°
2026-05-08 03:57 20.74474 -158.16864 20013 ft 368 kts 205°
2026-05-08 03:57 20.72127 -158.17961 20528 ft 370 kts 205°
2026-05-08 03:57 20.69747 -158.19073 21038 ft 372 kts 205°
2026-05-08 03:58 20.67386 -158.20177 21528 ft 374 kts 205°
2026-05-08 03:58 20.64985 -158.21300 21991 ft 377 kts 205°
2026-05-08 03:58 20.62585 -158.22421 22458 ft 380 kts 205°
2026-05-08 03:58 20.60131 -158.23567 22927 ft 382 kts 205°
2026-05-08 03:59 20.57708 -158.24698 23382 ft 384 kts 205°
2026-05-08 03:59 20.55238 -158.25850 23853 ft 386 kts 205°
2026-05-08 03:59 20.52781 -158.26997 24299 ft 388 kts 205°
2026-05-08 03:59 20.50298 -158.28155 24725 ft 390 kts 205°
2026-05-08 04:00 20.47771 -158.29334 25128 ft 393 kts 205°
2026-05-08 04:00 20.45282 -158.30493 25521 ft 396 kts 206°
2026-05-08 04:00 20.42722 -158.31685 25958 ft 398 kts 206°
2026-05-08 04:00 20.40199 -158.32860 26361 ft 399 kts 206°
2026-05-08 04:01 20.37624 -158.34059 26774 ft 401 kts 206°
2026-05-08 04:01 20.35050 -158.35257 27129 ft 404 kts 206°
2026-05-08 04:01 20.32482 -158.36452 27482 ft 407 kts 206°
2026-05-08 04:01 20.29858 -158.37671 27875 ft 408 kts 206°
2026-05-08 04:02 20.27266 -158.38876 28246 ft 410 kts 206°
2026-05-08 04:02 20.24622 -158.40105 28642 ft 411 kts 207°
2026-05-08 04:02 20.22002 -158.41322 29018 ft 412 kts 207°
2026-05-08 04:02 20.19357 -158.42549 29331 ft 415 kts 207°
2026-05-08 04:03 20.16731 -158.43768 29607 ft 417 kts 207°
2026-05-08 04:03 20.11356 -158.46262 30197 ft 421 kts 208°
2026-05-08 04:03 20.08686 -158.47499 30480 ft 423 kts 208°
2026-05-08 04:04 20.05956 -158.48764 30727 ft 425 kts 209°
2026-05-08 04:04 20.03258 -158.50015 30994 ft 427 kts 209°
2026-05-08 04:04 20.00502 -158.51291 31278 ft 428 kts 209°
2026-05-08 04:04 19.97748 -158.52565 31518 ft 430 kts 210°
2026-05-08 04:05 19.94998 -158.53839 31825 ft 430 kts 210°
2026-05-08 04:05 19.92273 -158.55098 32128 ft 430 kts 210°
2026-05-08 04:05 19.89493 -158.56384 32460 ft 429 kts 211°
2026-05-08 04:05 19.86764 -158.57645 32787 ft 428 kts 211°
2026-05-08 04:06 19.84012 -158.58917 33187 ft 426 kts 212°
2026-05-08 04:06 19.81296 -158.60172 33568 ft 424 kts 212°
2026-05-08 04:06 19.78571 -158.61430 33934 ft 423 kts 212°
2026-05-08 04:06 19.75883 -158.62669 34323 ft 421 kts 212°
2026-05-08 04:07 19.73160 -158.63925 34754 ft 418 kts 212°
2026-05-08 04:07 19.70501 -158.65152 35110 ft 417 kts 212°
2026-05-08 04:07 19.67823 -158.66388 35484 ft 416 kts 212°
2026-05-08 04:07 19.65163 -158.67613 35825 ft 415 kts 213°
2026-05-08 04:08 19.62497 -158.68842 36038 ft 417 kts 213°
2026-05-08 04:08 19.59820 -158.70076 36059 ft 422 kts 212°
2026-05-08 04:08 19.54338 -158.72600 36062 ft 433 kts 212°
2026-05-08 04:09 19.48766 -158.75162 36057 ft 443 kts 212°
2026-05-08 04:09 19.43089 -158.77769 36045 ft 442 kts 212°
2026-05-08 04:10 19.37411 -158.80376 36046 ft 439 kts 212°
2026-05-08 04:10 19.31777 -158.82962 36042 ft 443 kts 212°
2026-05-08 04:11 19.26115 -158.85556 36038 ft 439 kts 212°
2026-05-08 04:11 19.20474 -158.88142 36037 ft 444 kts 212°
2026-05-08 04:12 19.14801 -158.90739 36033 ft 440 kts 212°
2026-05-08 04:12 19.09163 -158.93320 36037 ft 442 kts 212°
2026-05-08 04:13 19.03458 -158.95927 36035 ft 443 kts 212°
2026-05-08 04:13 18.97812 -158.98506 36029 ft 442 kts 212°
2026-05-08 04:14 18.91722 -159.01286 36030 ft 443 kts 212°
2026-05-08 04:14 18.85645 -159.04057 36023 ft 442 kts 212°
2026-05-08 04:15 18.79933 -159.06661 36021 ft 440 kts 212°
2026-05-08 04:15 18.74216 -159.09264 36020 ft 444 kts 212°
2026-05-08 04:16 18.68481 -159.11874 36024 ft 441 kts 212°
2026-05-08 04:16 18.62759 -159.14475 36024 ft 442 kts 212°
2026-05-08 04:17 18.57106 -159.17044 36024 ft 444 kts 212°
2026-05-08 04:17 18.51430 -159.19621 36026 ft 441 kts 212°
2026-05-08 04:18 18.45766 -159.22191 36026 ft 443 kts 212°
2026-05-08 04:18 18.40063 -159.24777 36026 ft 443 kts 211°
2026-05-08 04:19 18.34591 -159.27257 36027 ft 442 kts 211°
2026-05-08 04:19 18.28940 -159.29814 36024 ft 442 kts 211°
2026-05-08 04:20 18.23316 -159.32359 36024 ft 441 kts 211°
2026-05-08 04:20 18.17660 -159.34917 36024 ft 441 kts 211°
2026-05-08 04:21 18.11968 -159.37488 36024 ft 443 kts 211°
2026-05-08 04:21 18.06208 -159.40089 36023 ft 443 kts 211°
2026-05-08 04:22 18.00566 -159.42635 36022 ft 441 kts 211°
2026-05-08 04:22 17.94926 -159.45177 36024 ft 442 kts 211°
2026-05-08 04:23 17.89177 -159.47766 36023 ft 442 kts 211°
2026-05-08 04:23 17.83518 -159.50314 36020 ft 440 kts 211°
2026-05-08 04:24 17.77855 -159.52863 36017 ft 441 kts 211°
2026-05-08 04:24 17.72097 -159.55158 36027 ft 447 kts 206°
2026-05-08 04:25 17.66177 -159.57242 36016 ft 448 kts 207°
2026-05-08 04:25 17.60088 -159.59409 36016 ft 448 kts 207°
2026-05-08 04:26 17.54199 -159.61505 36017 ft 446 kts 207°
2026-05-08 04:26 17.48294 -159.63606 36020 ft 446 kts 207°
2026-05-08 04:27 17.42379 -159.65709 36034 ft 447 kts 206°
2026-05-08 04:27 17.36464 -159.67810 36033 ft 446 kts 206°
2026-05-08 04:28 17.30568 -159.69904 36036 ft 449 kts 206°
2026-05-08 04:28 17.24611 -159.72017 36036 ft 450 kts 206°
2026-05-08 04:29 17.18705 -159.74110 36035 ft 447 kts 206°
2026-05-08 04:29 17.12758 -159.76218 36035 ft 448 kts 206°
2026-05-08 04:30 17.06863 -159.78305 36034 ft 449 kts 206°
2026-05-08 04:30 17.00930 -159.80405 36034 ft 447 kts 206°
2026-05-08 04:31 16.95009 -159.82498 36033 ft 449 kts 206°
2026-05-08 04:31 16.89066 -159.84599 36030 ft 450 kts 206°
2026-05-08 04:32 16.83122 -159.86697 36030 ft 449 kts 206°
2026-05-08 04:32 16.77204 -159.88786 36030 ft 448 kts 206°
2026-05-08 04:33 16.71239 -159.90891 36030 ft 449 kts 206°
2026-05-08 04:33 16.65327 -159.92973 36027 ft 450 kts 206°
2026-05-08 04:34 16.59378 -159.95068 36028 ft 450 kts 206°
2026-05-08 04:34 16.53408 -159.97171 36029 ft 451 kts 206°
2026-05-08 04:35 16.47453 -159.99265 36027 ft 450 kts 206°
2026-05-08 04:35 16.41500 -160.01358 36028 ft 450 kts 205°
2026-05-08 04:36 16.35535 -160.03453 36028 ft 452 kts 205°
2026-05-08 04:36 16.29606 -160.05534 36027 ft 451 kts 206°
2026-05-08 04:37 16.23617 -160.07636 36027 ft 451 kts 205°
2026-05-08 04:37 16.17640 -160.09732 36028 ft 452 kts 205°
2026-05-08 04:38 16.11687 -160.11818 36028 ft 451 kts 205°
2026-05-08 04:38 16.05705 -160.13911 36030 ft 453 kts 205°
2026-05-08 04:39 15.99742 -160.15999 36026 ft 452 kts 205°
2026-05-08 04:39 15.93764 -160.18089 36023 ft 451 kts 205°
2026-05-08 04:40 15.87828 -160.20165 36020 ft 452 kts 205°
2026-05-08 04:40 15.81836 -160.22258 36016 ft 453 kts 205°
2026-05-08 04:41 15.75870 -160.24339 36018 ft 451 kts 205°
2026-05-08 04:41 15.69917 -160.26416 36018 ft 452 kts 205°
2026-05-08 04:42 15.63930 -160.28503 36016 ft 452 kts 205°
2026-05-08 04:42 15.57904 -160.30603 36015 ft 454 kts 205°
2026-05-08 04:43 15.51927 -160.32684 36015 ft 454 kts 205°
2026-05-08 04:43 15.45947 -160.34766 36014 ft 452 kts 205°
2026-05-08 04:44 15.39988 -160.36838 36015 ft 452 kts 205°
2026-05-08 04:44 15.33991 -160.38922 36012 ft 453 kts 205°
2026-05-08 04:45 15.28006 -160.41000 36010 ft 454 kts 205°
2026-05-08 04:45 15.22012 -160.43082 36008 ft 452 kts 205°
2026-05-08 04:46 15.16023 -160.45160 36007 ft 453 kts 205°
2026-05-08 04:46 15.10040 -160.47235 36005 ft 453 kts 205°
2026-05-08 04:47 15.04035 -160.49315 36004 ft 454 kts 205°
2026-05-08 04:47 14.98028 -160.51396 36000 ft 454 kts 205°
2026-05-08 04:48 14.92053 -160.53464 36002 ft 453 kts 204°
2026-05-08 04:48 14.86044 -160.55542 35992 ft 453 kts 204°
2026-05-08 04:49 14.80051 -160.57614 35997 ft 453 kts 204°
2026-05-08 04:49 14.74050 -160.59688 35992 ft 454 kts 204°
2026-05-08 04:50 14.67980 -160.61784 35987 ft 454 kts 204°
2026-05-08 04:50 14.61951 -160.63864 35984 ft 454 kts 204°
2026-05-08 04:51 14.55962 -160.65930 35996 ft 453 kts 204°
2026-05-08 04:51 14.50001 -160.67984 35997 ft 453 kts 204°
2026-05-08 04:52 14.43994 -160.70055 35986 ft 453 kts 204°
2026-05-08 04:52 14.38036 -160.72105 35986 ft 452 kts 203°
2026-05-08 04:53 14.32084 -160.74153 35985 ft 452 kts 203°
2026-05-08 04:53 14.26095 -160.76215 35986 ft 452 kts 203°
2026-05-08 04:54 14.20114 -160.78270 35992 ft 452 kts 203°
2026-05-08 04:54 14.14163 -160.80315 35994 ft 451 kts 203°
2026-05-08 04:55 14.08163 -160.82375 35990 ft 451 kts 203°
2026-05-08 04:55 14.02223 -160.84413 35990 ft 451 kts 203°
2026-05-08 04:56 13.96246 -160.86462 35989 ft 453 kts 203°
2026-05-08 04:56 13.90276 -160.88509 35986 ft 451 kts 202°
2026-05-08 04:57 13.84275 -160.90565 35985 ft 451 kts 202°
2026-05-08 04:57 13.78327 -160.92601 35984 ft 451 kts 202°
2026-05-08 04:58 13.72369 -160.94641 35982 ft 451 kts 202°
2026-05-08 04:58 13.66390 -160.96686 35981 ft 451 kts 202°
2026-05-08 04:59 13.60449 -160.98717 35980 ft 452 kts 202°
2026-05-08 04:59 13.54463 -161.00763 35978 ft 451 kts 202°
2026-05-08 05:00 13.48472 -161.02808 35977 ft 452 kts 201°
2026-05-08 05:00 13.42484 -161.04852 35975 ft 452 kts 201°
2026-05-08 05:01 13.36549 -161.06877 35974 ft 451 kts 201°
2026-05-08 05:01 13.30579 -161.08913 35979 ft 452 kts 201°
2026-05-08 05:02 13.24606 -161.10948 35983 ft 452 kts 201°
2026-05-08 05:02 13.18597 -161.12994 35984 ft 451 kts 201°
2026-05-08 05:03 13.12607 -161.15034 35983 ft 453 kts 201°
2026-05-08 05:03 13.06626 -161.17068 35985 ft 453 kts 201°
2026-05-08 05:04 13.00613 -161.19113 35982 ft 453 kts 201°
2026-05-08 05:04 12.94605 -161.21156 35976 ft 454 kts 200°
2026-05-08 05:05 12.88628 -161.23187 35965 ft 452 kts 200°
2026-05-08 05:05 12.82634 -161.25223 35964 ft 452 kts 200°
2026-05-08 05:06 12.76648 -161.27254 35960 ft 453 kts 200°
2026-05-08 05:06 12.70634 -161.29294 35960 ft 452 kts 200°
2026-05-08 05:07 12.64622 -161.31332 35961 ft 452 kts 200°
2026-05-08 05:07 12.58610 -161.33369 35961 ft 453 kts 200°
2026-05-08 05:08 12.52624 -161.35397 35964 ft 452 kts 200°
2026-05-08 05:08 12.46590 -161.37440 35964 ft 452 kts 200°
2026-05-08 05:09 12.40612 -161.39464 35965 ft 451 kts 200°
2026-05-08 05:09 12.34617 -161.41492 35963 ft 452 kts 200°
2026-05-08 05:10 12.25621 -161.44531 35962 ft 453 kts 200°
2026-05-08 05:11 12.19564 -161.46578 35954 ft 453 kts 199°
2026-05-08 05:11 12.13510 -161.48622 35947 ft 453 kts 200°
2026-05-08 05:12 12.07494 -161.50653 35945 ft 454 kts 200°
2026-05-08 05:12 12.01478 -161.52683 35944 ft 453 kts 199°
2026-05-08 05:13 11.95431 -161.54721 35943 ft 453 kts 199°
2026-05-08 05:13 11.89425 -161.56746 35944 ft 455 kts 199°
2026-05-08 05:14 11.83365 -161.58786 35945 ft 454 kts 199°
2026-05-08 05:14 11.77377 -161.60803 35945 ft 453 kts 199°
2026-05-08 05:15 11.71365 -161.62826 35946 ft 454 kts 199°
2026-05-08 05:15 11.65367 -161.64844 35946 ft 453 kts 199°
2026-05-08 05:16 11.59338 -161.66872 35948 ft 452 kts 199°
2026-05-08 05:16 11.53345 -161.68886 35947 ft 453 kts 199°
2026-05-08 05:17 11.47358 -161.70897 35947 ft 454 kts 198°
2026-05-08 05:17 11.41354 -161.72913 35947 ft 454 kts 198°
2026-05-08 05:18 11.35337 -161.74931 35946 ft 453 kts 198°
2026-05-08 05:18 11.29294 -161.76959 35945 ft 453 kts 198°
2026-05-08 05:19 11.23273 -161.78978 35947 ft 455 kts 198°
2026-05-08 05:19 11.17218 -161.81009 35946 ft 455 kts 198°
2026-05-08 05:20 11.11161 -161.83037 35943 ft 458 kts 198°
2026-05-08 05:20 11.05083 -161.85072 35940 ft 458 kts 198°
2026-05-08 05:21 10.98984 -161.87114 35931 ft 459 kts 198°
2026-05-08 05:21 10.92931 -161.89140 35925 ft 458 kts 198°
2026-05-08 05:22 10.86858 -161.91171 35925 ft 458 kts 198°
2026-05-08 05:22 10.80793 -161.93199 35923 ft 459 kts 198°
2026-05-08 05:23 10.74735 -161.95222 35926 ft 459 kts 198°
2026-05-08 05:23 10.68652 -161.97255 35924 ft 460 kts 198°
2026-05-08 05:24 10.62559 -161.99291 35924 ft 460 kts 198°
2026-05-08 05:24 10.56427 -162.01337 35925 ft 460 kts 198°
2026-05-08 05:25 10.50327 -162.03371 35924 ft 460 kts 197°
2026-05-08 05:25 10.44239 -162.05402 35925 ft 460 kts 197°
2026-05-08 05:26 10.38170 -162.07425 35925 ft 460 kts 198°
2026-05-08 05:26 10.32067 -162.09457 35924 ft 460 kts 197°
2026-05-08 05:27 10.25961 -162.11491 35925 ft 460 kts 197°
2026-05-08 05:27 10.19866 -162.13521 35926 ft 461 kts 197°
2026-05-08 05:28 10.13747 -162.15558 35923 ft 462 kts 197°
2026-05-08 05:28 10.07601 -162.17603 35926 ft 463 kts 197°
2026-05-08 05:29 10.01448 -162.19647 35925 ft 463 kts 197°
2026-05-08 05:29 9.95303 -162.21690 35926 ft 463 kts 197°
2026-05-08 05:30 9.89165 -162.23730 35925 ft 462 kts 198°
2026-05-08 05:30 9.83043 -162.25763 35923 ft 463 kts 198°
2026-05-08 05:31 9.76902 -162.27802 35921 ft 464 kts 197°
2026-05-08 05:31 9.70749 -162.29845 35920 ft 464 kts 198°
2026-05-08 05:32 9.64586 -162.31889 35918 ft 464 kts 198°
2026-05-08 05:32 9.58459 -162.33920 35920 ft 464 kts 198°
2026-05-08 05:33 9.52313 -162.35959 35928 ft 464 kts 197°
2026-05-08 05:33 9.46166 -162.37994 35925 ft 464 kts 197°
2026-05-08 05:34 9.39996 -162.40039 35926 ft 465 kts 197°
2026-05-08 05:34 9.33787 -162.42094 35926 ft 465 kts 198°
2026-05-08 05:35 9.27621 -162.44136 35927 ft 466 kts 198°
2026-05-08 05:35 9.21389 -162.46197 35928 ft 465 kts 198°
2026-05-08 05:36 9.15193 -162.48247 35927 ft 465 kts 198°
2026-05-08 05:36 9.09009 -162.50291 35927 ft 466 kts 198°
2026-05-08 05:37 9.02781 -162.52350 35929 ft 466 kts 198°
2026-05-08 05:37 8.96581 -162.54399 35928 ft 468 kts 197°
2026-05-08 05:38 8.90389 -162.56444 35929 ft 466 kts 197°
2026-05-08 05:38 8.84197 -162.58487 35927 ft 467 kts 197°
2026-05-08 05:39 8.78029 -162.60522 35927 ft 467 kts 197°
2026-05-08 05:39 8.71824 -162.62570 35926 ft 468 kts 197°
2026-05-08 05:40 8.65592 -162.64625 35928 ft 469 kts 197°
2026-05-08 05:40 8.59374 -162.66676 35924 ft 469 kts 197°
2026-05-08 05:41 8.53158 -162.68724 35925 ft 469 kts 197°
2026-05-08 05:41 8.46936 -162.70775 35924 ft 469 kts 197°
2026-05-08 05:42 8.40694 -162.72830 35919 ft 469 kts 197°
2026-05-08 05:42 8.34483 -162.74875 35916 ft 469 kts 197°
2026-05-08 05:43 8.28231 -162.76933 35912 ft 470 kts 197°
2026-05-08 05:43 8.21988 -162.78987 35914 ft 471 kts 197°
2026-05-08 05:44 8.15678 -162.81062 35912 ft 471 kts 197°
2026-05-08 05:44 8.09433 -162.83116 35908 ft 471 kts 197°
2026-05-08 05:45 8.03205 -162.85162 35908 ft 470 kts 197°
2026-05-08 05:45 7.96972 -162.87210 35904 ft 470 kts 197°
2026-05-08 05:46 7.90718 -162.89265 35904 ft 472 kts 197°
2026-05-08 05:46 7.84451 -162.91322 35903 ft 472 kts 197°
2026-05-08 05:47 7.78188 -162.93379 35903 ft 472 kts 197°
2026-05-08 05:47 7.71899 -162.95442 35903 ft 472 kts 197°
2026-05-08 05:48 7.65616 -162.97504 35904 ft 471 kts 197°
2026-05-08 05:48 7.59367 -162.99553 35903 ft 471 kts 197°
2026-05-08 05:49 7.53131 -163.01598 35904 ft 472 kts 197°
2026-05-08 05:49 7.46842 -163.03659 35904 ft 473 kts 197°
2026-05-08 05:50 7.40554 -163.05721 35904 ft 474 kts 197°
2026-05-08 05:50 7.34273 -163.07777 35906 ft 473 kts 197°
2026-05-08 05:51 7.28019 -163.09825 35904 ft 472 kts 197°
2026-05-08 05:51 7.21745 -163.11879 35908 ft 472 kts 197°
2026-05-08 05:52 7.15440 -163.13942 35919 ft 473 kts 197°
2026-05-08 05:52 7.09140 -163.16003 35922 ft 473 kts 197°
2026-05-08 05:53 7.02871 -163.18053 35916 ft 474 kts 197°
2026-05-08 05:53 6.96554 -163.20119 35911 ft 475 kts 197°
2026-05-08 05:54 6.90257 -163.22177 35909 ft 475 kts 197°
2026-05-08 05:54 6.83935 -163.24243 35906 ft 475 kts 197°
2026-05-08 05:55 6.77623 -163.26306 35905 ft 474 kts 197°
2026-05-08 05:55 6.71190 -163.28407 35906 ft 474 kts 197°
2026-05-08 05:56 6.64919 -163.30455 35906 ft 474 kts 197°
2026-05-08 05:56 6.58628 -163.32509 35906 ft 475 kts 197°
2026-05-08 05:57 6.52341 -163.34560 35906 ft 476 kts 197°
2026-05-08 05:57 6.45950 -163.36646 35907 ft 475 kts 197°
2026-05-08 05:58 6.39696 -163.38686 35907 ft 474 kts 197°
2026-05-08 05:58 6.33400 -163.40739 35907 ft 474 kts 197°
2026-05-08 05:59 6.27040 -163.42812 35908 ft 474 kts 197°
2026-05-08 05:59 6.20650 -163.44894 35908 ft 476 kts 197°
2026-05-08 06:00 6.14323 -163.46957 35908 ft 476 kts 197°
2026-05-08 06:00 6.08013 -163.49013 35906 ft 475 kts 197°
2026-05-08 06:01 6.01707 -163.51067 35902 ft 475 kts 197°
2026-05-08 06:01 5.95428 -163.53111 35895 ft 474 kts 197°
2026-05-08 06:02 5.89096 -163.55173 35897 ft 475 kts 197°
2026-05-08 06:02 5.82822 -163.57214 35895 ft 475 kts 197°
2026-05-08 06:03 5.76476 -163.59279 35902 ft 474 kts 197°
2026-05-08 06:03 5.70197 -163.61322 35907 ft 474 kts 197°
2026-05-08 06:04 5.63903 -163.63368 35907 ft 475 kts 197°
2026-05-08 06:04 5.57589 -163.65422 35903 ft 475 kts 197°
2026-05-08 06:05 5.51285 -163.67471 35903 ft 475 kts 197°
2026-05-08 06:05 5.44997 -163.69514 35904 ft 475 kts 197°
2026-05-08 06:06 5.38687 -163.71565 35902 ft 475 kts 197°
2026-05-08 06:06 5.32402 -163.73607 35902 ft 476 kts 197°
2026-05-08 06:07 5.26042 -163.75673 35905 ft 478 kts 197°
2026-05-08 06:07 5.19685 -163.77736 35903 ft 478 kts 196°
2026-05-08 06:08 5.13326 -163.79800 35907 ft 478 kts 196°
2026-05-08 06:08 5.06998 -163.81854 35900 ft 477 kts 196°
2026-05-08 06:09 5.00655 -163.83914 35889 ft 478 kts 196°
2026-05-08 06:09 4.94291 -163.85979 35885 ft 478 kts 196°
2026-05-08 06:10 4.87952 -163.88034 35883 ft 478 kts 196°
2026-05-08 06:10 4.81588 -163.90099 35883 ft 479 kts 196°
2026-05-08 06:11 4.75234 -163.92158 35884 ft 479 kts 196°
2026-05-08 06:11 4.68871 -163.94222 35882 ft 478 kts 196°
2026-05-08 06:12 4.62546 -163.96272 35883 ft 478 kts 197°
2026-05-08 06:12 4.56164 -163.98340 35884 ft 478 kts 197°
2026-05-08 06:13 4.49850 -164.00386 35883 ft 477 kts 196°
2026-05-08 06:13 4.43503 -164.02441 35884 ft 478 kts 196°
2026-05-08 06:14 4.37167 -164.04494 35884 ft 479 kts 197°
2026-05-08 06:14 4.30763 -164.06567 35885 ft 478 kts 197°
2026-05-08 06:15 4.24430 -164.08618 35885 ft 478 kts 197°
2026-05-08 06:15 4.18060 -164.10681 35886 ft 478 kts 197°
2026-05-08 06:16 4.11744 -164.12726 35886 ft 477 kts 197°
2026-05-08 06:16 4.04817 -164.14967 35886 ft 478 kts 197°
2026-05-08 06:17 3.94069 -164.18445 35887 ft 478 kts 197°
2026-05-08 06:17 3.87581 -164.20543 35883 ft 478 kts 197°
2026-05-08 06:18 3.80658 -164.22781 35884 ft 478 kts 197°
2026-05-08 06:18 3.73368 -164.25139 35884 ft 477 kts 197°
2026-05-08 06:19 3.66015 -164.27516 35885 ft 477 kts 197°
2026-05-08 06:19 3.59017 -164.29779 35885 ft 477 kts 197°
2026-05-08 06:20 3.52668 -164.31830 35888 ft 477 kts 197°
2026-05-08 06:20 3.46299 -164.33888 35892 ft 478 kts 197°
2026-05-08 06:21 3.39924 -164.35948 35897 ft 477 kts 197°
2026-05-08 06:21 3.33615 -164.37987 35900 ft 477 kts 197°
2026-05-08 06:22 3.27266 -164.40037 35902 ft 477 kts 197°
2026-05-08 06:22 3.20913 -164.42090 35907 ft 478 kts 197°
2026-05-08 06:23 3.14548 -164.44145 35899 ft 477 kts 197°
2026-05-08 06:23 3.08232 -164.46184 35889 ft 476 kts 197°
2026-05-08 06:24 3.03288 -164.47780 35887 ft 476 kts 197°
2026-05-08 06:24 2.99325 -164.49060 35897 ft 475 kts 197°
2026-05-08 06:25 2.92994 -164.51103 35897 ft 475 kts 197°
2026-05-08 06:25 2.86677 -164.53142 35893 ft 476 kts 197°
2026-05-08 06:26 2.80359 -164.55182 35893 ft 476 kts 197°
2026-05-08 06:26 2.74055 -164.57216 35893 ft 476 kts 197°
2026-05-08 06:27 2.67706 -164.59264 35887 ft 476 kts 197°
2026-05-08 06:27 2.61398 -164.61299 35886 ft 476 kts 197°
2026-05-08 06:28 2.55048 -164.63347 35886 ft 477 kts 197°
2026-05-08 06:28 2.48729 -164.65385 35883 ft 477 kts 197°
2026-05-08 06:29 2.42445 -164.67412 35883 ft 475 kts 197°
2026-05-08 06:29 2.36120 -164.69452 35884 ft 475 kts 197°
2026-05-08 06:30 2.29796 -164.71490 35885 ft 475 kts 197°
2026-05-08 06:30 2.23496 -164.73521 35887 ft 476 kts 197°
2026-05-08 06:31 2.17191 -164.75554 35887 ft 475 kts 197°
2026-05-08 06:31 2.10904 -164.77580 35888 ft 475 kts 197°
2026-05-08 06:32 2.04582 -164.79617 35890 ft 474 kts 197°
2026-05-08 06:32 1.98276 -164.81650 35892 ft 474 kts 197°
2026-05-08 06:33 1.91974 -164.83681 35901 ft 474 kts 197°
2026-05-08 06:33 1.85682 -164.85709 35905 ft 475 kts 197°
2026-05-08 06:34 1.79371 -164.87743 35904 ft 475 kts 197°
2026-05-08 06:34 1.73076 -164.89771 35903 ft 474 kts 197°
2026-05-08 06:35 1.66811 -164.91788 35905 ft 475 kts 197°
2026-05-08 06:35 1.60499 -164.93822 35906 ft 475 kts 197°
2026-05-08 06:36 1.54187 -164.95854 35905 ft 474 kts 197°
2026-05-08 06:36 1.47920 -164.97873 35902 ft 475 kts 197°
2026-05-08 06:37 1.41599 -164.99910 35892 ft 475 kts 197°
2026-05-08 06:37 1.35293 -165.01941 35885 ft 475 kts 197°
2026-05-08 06:38 1.28974 -165.03975 35886 ft 476 kts 197°
2026-05-08 06:38 1.22694 -165.05997 35886 ft 475 kts 197°
2026-05-08 06:39 1.16386 -165.08029 35887 ft 476 kts 197°
2026-05-08 06:39 1.10042 -165.10071 35886 ft 476 kts 197°
2026-05-08 06:40 1.03739 -165.12102 35888 ft 476 kts 197°
2026-05-08 06:40 0.97449 -165.14127 35887 ft 476 kts 197°
2026-05-08 06:41 0.91126 -165.16162 35886 ft 476 kts 197°
2026-05-08 06:41 0.84812 -165.18195 35884 ft 477 kts 197°
2026-05-08 06:42 0.78474 -165.20235 35883 ft 476 kts 197°
2026-05-08 06:42 0.72142 -165.22273 35883 ft 477 kts 197°
2026-05-08 06:43 0.65857 -165.24297 35883 ft 476 kts 197°
2026-05-08 06:43 0.59549 -165.26327 35884 ft 475 kts 197°
2026-05-08 06:44 0.53224 -165.28363 35884 ft 475 kts 197°
2026-05-08 06:44 0.46906 -165.30397 35885 ft 476 kts 197°
2026-05-08 06:45 0.40587 -165.32431 35886 ft 477 kts 197°
2026-05-08 06:45 0.34274 -165.34462 35886 ft 476 kts 197°
2026-05-08 06:46 0.27927 -165.36505 35884 ft 476 kts 197°
2026-05-08 06:46 0.21624 -165.38535 35886 ft 475 kts 197°
2026-05-08 06:47 0.15318 -165.40564 35886 ft 475 kts 197°
2026-05-08 06:47 0.08985 -165.42603 35885 ft 476 kts 197°
2026-05-08 06:48 0.02694 -165.44627 35887 ft 476 kts 197°
2026-05-08 06:48 -0.03647 -165.46668 35887 ft 475 kts 197°
2026-05-08 06:49 -0.09968 -165.48703 35888 ft 476 kts 197°
2026-05-08 06:49 -0.16246 -165.50723 35886 ft 475 kts 197°
2026-05-08 06:50 -0.22567 -165.52757 35885 ft 475 kts 197°
2026-05-08 06:50 -0.28875 -165.54788 35886 ft 474 kts 197°
2026-05-08 06:51 -0.35148 -165.56807 35885 ft 475 kts 197°
2026-05-08 06:51 -0.41460 -165.58838 35888 ft 474 kts 197°
2026-05-08 06:52 -0.47763 -165.60867 35896 ft 474 kts 197°
2026-05-08 06:52 -0.54069 -165.62897 35901 ft 475 kts 197°
2026-05-08 06:53 -0.60363 -165.64923 35905 ft 475 kts 197°
2026-05-08 06:53 -0.66665 -165.66952 35905 ft 475 kts 197°
2026-05-08 06:54 -0.72955 -165.68977 35905 ft 474 kts 197°
2026-05-08 06:54 -0.79241 -165.71001 35905 ft 473 kts 197°
2026-05-08 06:55 -0.85523 -165.73022 35905 ft 474 kts 197°
2026-05-08 06:55 -0.91800 -165.75043 35906 ft 474 kts 197°
2026-05-08 06:56 -0.98124 -165.77080 35905 ft 475 kts 197°
2026-05-08 06:56 -1.04394 -165.79099 35905 ft 473 kts 197°
2026-05-08 06:57 -1.10680 -165.81122 35905 ft 473 kts 197°
2026-05-08 06:57 -1.16960 -165.83144 35902 ft 473 kts 197°
2026-05-08 06:58 -1.23199 -165.85153 35902 ft 473 kts 197°
2026-05-08 06:58 -1.29482 -165.87177 35898 ft 473 kts 197°
2026-05-08 06:59 -1.35766 -165.89200 35891 ft 474 kts 197°
2026-05-08 06:59 -1.42054 -165.91226 35884 ft 473 kts 197°
2026-05-08 07:00 -1.48330 -165.93247 35884 ft 473 kts 197°
2026-05-08 07:00 -1.54590 -165.95262 35884 ft 472 kts 197°
2026-05-08 07:01 -1.60851 -165.97279 35885 ft 473 kts 197°
2026-05-08 07:01 -1.67108 -165.99295 35885 ft 472 kts 197°
2026-05-08 07:02 -1.73372 -166.01314 35885 ft 473 kts 197°
2026-05-08 07:02 -1.79673 -166.03343 35885 ft 473 kts 197°
2026-05-08 07:03 -1.85916 -166.05356 35885 ft 472 kts 197°
2026-05-08 07:03 -1.92193 -166.07378 35885 ft 471 kts 197°
2026-05-08 07:04 -1.98421 -166.09384 35886 ft 472 kts 197°
2026-05-08 07:04 -2.04688 -166.11404 35886 ft 472 kts 197°
2026-05-08 07:05 -2.10940 -166.13419 35885 ft 471 kts 197°
2026-05-08 07:05 -2.17194 -166.15436 35885 ft 472 kts 197°
2026-05-08 07:06 -2.23460 -166.17456 35885 ft 473 kts 197°
2026-05-08 07:06 -2.29741 -166.19479 35884 ft 472 kts 197°
2026-05-08 07:07 -2.36025 -166.21506 35885 ft 473 kts 197°
2026-05-08 07:07 -2.42307 -166.23532 35888 ft 472 kts 197°
2026-05-08 07:08 -2.48576 -166.25554 35898 ft 472 kts 197°
2026-05-08 07:08 -2.54807 -166.27563 35904 ft 472 kts 198°
2026-05-08 07:09 -2.61083 -166.29587 35906 ft 472 kts 198°
2026-05-08 07:09 -2.67349 -166.31609 35906 ft 471 kts 198°
2026-05-08 07:10 -2.73660 -166.33644 35906 ft 471 kts 198°
2026-05-08 07:10 -2.79935 -166.35669 35906 ft 471 kts 198°
2026-05-08 07:11 -2.86227 -166.37700 35906 ft 470 kts 198°
2026-05-08 07:11 -2.92522 -166.39731 35906 ft 470 kts 198°
2026-05-08 07:12 -2.98760 -166.41745 35906 ft 470 kts 198°
2026-05-08 07:12 -3.05033 -166.43770 35906 ft 470 kts 198°
2026-05-08 07:13 -3.11304 -166.45795 35905 ft 470 kts 198°